Weather in Sladkovo

Russia / Orenburg Oblast     51°37′42″N   53°29′00″E
temp.,
°C
wind,
m/s
gust,
m/s
humid.,
%
clouds,
%
prec.,
mm/h
press.,
hPa
HPBL,
m
27 february, sat
sat2723:00−15se61295100 0.1 1017304
02:00−13sse71295100 0.2 1013370
05:00−10sse91694100 2.6 1008511
08:00−7sse81395100 4.8 1004539
11:00−4sse6997100 5.8 1002274
14:00+1sw37100100 0.4 1002257
17:00+1sw59100100 0.6 1002421
20:000sw5898100 0.4 1001401
28 february, sun
sun2823:000wsw4898100 1.1 1001379
02:000sw4898100 0.2 999402
05:000sw5898100 0.9 999436
08:00−1sw4998100 1.0 999386
11:00−5wsw5796100 1.4 1000259
14:00−7wnw579399 0.1 1003381
17:00−9wnw6993100 0.3 1006432
20:00−12wnw499599 0.1 1009284
1 march, mon
mon123:00−15w369692 0.2 1012147
02:00−17w359795 0.1 101394
05:00−18w339896 0.1 101560
08:00−18w339897 0.1 101755
11:00−14wnw349497 0.2 1018247
14:00−12wnw459298 0.1 1019395
17:00−12wnw459299 0.1 1021385
20:00−18nw349685 0.0 102241
2 march, tue
tue223:00−20wnw239973 0.0 102320
02:00−22wnw229971 0.0 102320
05:00−24w2210042 0.0 102320
08:00−24sw2310048 0.0 102220
11:00−20ssw369967 0.0 1021200
14:00−15ssw6996100 0.0 1018352
17:00−13ssw71294100 0.1 1015439
20:00−9s61395100 0.4 1012530
3 march, wed
wed323:00−5ssw71496100 1.8 1009650
02:00−3ssw71397100 1.8 1005734
05:00−3sw61197100 3.3 1003576
08:00−4sw4997100 0.8 1002306
11:00−3w4797100 1.3 1002344
14:00−4w579596 0.1 1003355
17:00−4w589597 0.2 1003473
20:00−3w61096100 0.6 1004532